sat.trackr.live / text

‹ back to catalog

STARLINK-1300

NORAD 45374 · 2020-019Q

PAYLOAD ACTIVE UNKNOWN

§ Identity

Operator
Country
US
Launch date
2020-03-18
Launch site
AFETR
Launch vehicle
Mass (kg)
RCS (m²)

Purposes: comms

External: N2YO · Heavens-Above · Gunter

§ Orbital elements

Epoch: 2026-05-25T01:12:53.302752Z

Period
93.87 min
Inclination
53.1585°
Eccentricity
0.0004695
Mean motion
15.33974906 rev/d
Perigee alt
460.8 km
Apogee alt
467.2 km
Semi-major
6,842.1 km
B*
9.4505e-4
RAAN
169.9458°
Arg perigee
38.6916°
Mean anomaly
321.4422°
Rev number
34,145

§ Raw data

STARLINK-13001 45374U 20019Q   26145.05061693  .00031267  00000+0  94505-3 0  99972 45374  53.1585 169.9458 0004695  38.6916 321.4422 15.33974906341453

JSON: /api/v1/satellites/45374 · /tle

For live sub-satellite position, see the globe view (requires WebGL).

§ Visibility from observer

Set your observer location to see the next 7 days of passes ≥ 10°. The values pass through the URL so the page stays shareable.

No JS? Fill the form by hand. The geolocation button needs JavaScript.